Location: Newark
(60.5925°N, 45.5911°E)
Time: 16:13:52
(UTC+00:00)

ISS - Pass Details

Date: 27 September 2019
Orbit: 411 x 421 km, 51.6° (Epoch: 22 October)

Event Time Altitude Azimuth Distance (km) Brightness Sun altitude
Rises 15:24:15 0° 225° (SW) 2,343 0.6 -5.8°
Reaches altitude 10° 15:26:59 10° 200° (SSW) 1,482 -0.8 -6.2°
Maximum altitude 15:28:56 15° 164° (SSE) 1,226 -1.6 -6.4°
Drops below altitude 10° 15:30:52 10° 128° (SE) 1,483 -1.5 -6.6°
Enters shadow 15:31:34 - 120° (ESE) 1,670 -1.3 -6.7°
